SAM3111 KADW-ENOL

Flight info

Callsign SAM3111
Flight time N/A
Altitude 37000
Route HALEX Q119 EMI J48 LANNA Q448 DBABE Q406 BAF Q480 ENE Q822 ALLEX N707B MELDI/M079F390 DCT 56N049W 59N041W 62N031W 63N019W 64N007W/N0463F390 DCT GIPOD/N0461F400 DCT GIPOD/N0461F390 DCT ERKOR
Aircraft B737/M-SDE2E3FGHIRWXY/LB1

Departure

Time 2026-04-17 22:07
Airport Joint Base Andrews (KADW)

Arrival

Time N/A
Airport Ørland Airport (ENOL)
Time Latitude Longitude Altitude Speed Heading
2026-04-17 21:50 38.80676 -76.87722 288 ft 0 kts
2026-04-17 22:01 38.80677 -76.87722 288 ft 1 kts
2026-04-17 22:02 38.80699 -76.87723 288 ft 5 kts 359°
2026-04-17 22:02 38.80730 -76.87696 288 ft 8 kts 72°
2026-04-17 22:02 38.80739 -76.87612 288 ft 10 kts 87°
2026-04-17 22:02 38.80742 -76.87512 288 ft 11 kts 93°
2026-04-17 22:03 38.80696 -76.87445 288 ft 11 kts 176°
2026-04-17 22:03 38.80616 -76.87443 288 ft 12 kts 180°
2026-04-17 22:03 38.80526 -76.87443 288 ft 13 kts 180°
2026-04-17 22:03 38.80435 -76.87442 288 ft 13 kts 180°
2026-04-17 22:04 38.80343 -76.87443 288 ft 13 kts 180°
2026-04-17 22:04 38.80244 -76.87442 288 ft 14 kts 178°
2026-04-17 22:04 38.80149 -76.87441 288 ft 13 kts 180°
2026-04-17 22:04 38.80060 -76.87440 288 ft 13 kts 177°
2026-04-17 22:05 38.79974 -76.87437 288 ft 12 kts 179°
2026-04-17 22:05 38.79891 -76.87436 288 ft 12 kts 180°
2026-04-17 22:05 38.79811 -76.87435 288 ft 11 kts 174°
2026-04-17 22:05 38.79780 -76.87359 288 ft 11 kts 89°
2026-04-17 22:06 38.79783 -76.87266 288 ft 10 kts 86°
2026-04-17 22:06 38.79790 -76.87177 288 ft 10 kts 85°
2026-04-17 22:06 38.79803 -76.87094 288 ft 10 kts 41°
2026-04-17 22:06 38.79928 -76.87079 288 ft 39 kts 359°
2026-04-17 22:07 38.80469 -76.87091 288 ft 115 kts 359°
2026-04-17 22:07 38.81466 -76.87092 485 ft 160 kts
2026-04-17 22:07 38.82590 -76.87051 1348 ft 164 kts
2026-04-17 22:07 38.83754 -76.86868 2195 ft 168 kts
2026-04-17 22:08 38.84918 -76.86746 2800 ft 173 kts 359°
2026-04-17 22:08 38.86186 -76.86698 3141 ft 192 kts 359°
2026-04-17 22:08 38.87594 -76.86690 3436 ft 213 kts 358°
2026-04-17 22:08 38.89158 -76.86698 3710 ft 235 kts 357°
2026-04-17 22:09 38.90817 -76.86828 4286 ft 247 kts 352°
2026-04-17 22:09 38.92560 -76.87143 4898 ft 259 kts 349°
2026-04-17 22:09 38.94351 -76.87500 5716 ft 262 kts 349°
2026-04-17 22:09 38.96158 -76.87855 6555 ft 265 kts 350°
2026-04-17 22:10 38.97999 -76.88211 7369 ft 270 kts 350°
2026-04-17 22:10 38.99866 -76.88570 8176 ft 273 kts 350°
2026-04-17 22:10 39.01748 -76.88931 8914 ft 277 kts 350°
2026-04-17 22:10 39.03659 -76.89294 9734 ft 278 kts 350°
2026-04-17 22:11 39.05574 -76.89653 10507 ft 280 kts 349°
2026-04-17 22:11 39.07522 -76.90021 11147 ft 287 kts 349°
2026-04-17 22:11 39.09551 -76.90398 11536 ft 304 kts 349°
2026-04-17 22:11 39.11695 -76.90798 11882 ft 321 kts 349°
2026-04-17 22:12 39.13960 -76.91227 12174 ft 339 kts 349°
2026-04-17 22:12 39.16350 -76.91674 12451 ft 355 kts 349°
2026-04-17 22:12 39.18825 -76.92130 12959 ft 363 kts 349°
2026-04-17 22:12 39.21332 -76.92587 13649 ft 365 kts 350°
2026-04-17 22:13 39.23855 -76.93057 14376 ft 368 kts 349°
2026-04-17 22:13 39.26391 -76.93537 15018 ft 371 kts 349°
2026-04-17 22:13 39.28953 -76.94021 15673 ft 374 kts 349°
2026-04-17 22:13 39.31531 -76.94507 16319 ft 377 kts 350°
2026-04-17 22:14 39.34124 -76.94997 16947 ft 379 kts 350°
2026-04-17 22:14 39.36740 -76.95490 17551 ft 382 kts 350°
2026-04-17 22:14 39.39371 -76.95986 18141 ft 384 kts 350°
2026-04-17 22:14 39.42022 -76.96487 18689 ft 387 kts 349°
2026-04-17 22:15 39.44695 -76.96986 19230 ft 391 kts 351°
2026-04-17 22:15 39.47427 -76.97050 19750 ft 398 kts
2026-04-17 22:15 39.50114 -76.96066 20246 ft 409 kts 21°
2026-04-17 22:15 39.52531 -76.94057 20729 ft 421 kts 37°
2026-04-17 22:16 39.54469 -76.91170 21173 ft 434 kts 53°
2026-04-17 22:16 39.55868 -76.87674 21618 ft 442 kts 62°
2026-04-17 22:16 39.57179 -76.84060 22036 ft 444 kts 58°
2026-04-17 22:16 39.58682 -76.80569 22423 ft 446 kts 55°
2026-04-17 22:17 39.60318 -76.77163 22822 ft 447 kts 52°
2026-04-17 22:17 39.62044 -76.73796 23205 ft 450 kts 51°
2026-04-17 22:17 39.63791 -76.70425 23574 ft 453 kts 51°
2026-04-17 22:17 39.65551 -76.67028 23932 ft 456 kts 51°
2026-04-17 22:18 39.67319 -76.63610 24294 ft 459 kts 51°
2026-04-17 22:18 39.69102 -76.60170 24643 ft 461 kts 51°
2026-04-17 22:18 39.70917 -76.56725 24976 ft 464 kts 51°
2026-04-17 22:18 39.72726 -76.53254 25307 ft 467 kts 51°
2026-04-17 22:19 39.74559 -76.49776 25638 ft 469 kts 51°
2026-04-17 22:19 39.76386 -76.46258 25946 ft 471 kts 52°
2026-04-17 22:19 39.78209 -76.42721 26227 ft 474 kts 52°
2026-04-17 22:19 39.80042 -76.39149 26521 ft 477 kts 52°
2026-04-17 22:20 39.81881 -76.35560 26800 ft 479 kts 52°
2026-04-17 22:20 39.83727 -76.31951 27086 ft 481 kts 52°
2026-04-17 22:20 39.85578 -76.28329 27349 ft 483 kts 52°
2026-04-17 22:20 39.87440 -76.24685 27616 ft 485 kts 52°
2026-04-17 22:21 39.89311 -76.21026 27866 ft 487 kts 52°
2026-04-17 22:21 39.91179 -76.17358 28131 ft 488 kts 52°
2026-04-17 22:21 39.93041 -76.13674 28505 ft 487 kts 53°
2026-04-17 22:21 39.94894 -76.10001 28880 ft 486 kts 53°
2026-04-17 22:22 39.96744 -76.06320 29218 ft 486 kts 53°
2026-04-17 22:22 39.98624 -76.02676 29555 ft 485 kts 52°
2026-04-17 22:22 40.00491 -75.99041 29914 ft 484 kts 52°
2026-04-17 22:22 40.02354 -75.95388 30239 ft 484 kts 53°
2026-04-17 22:23 40.04119 -75.91917 30570 ft 483 kts 53°
2026-04-17 22:23 40.06059 -75.88095 30912 ft 482 kts 53°
2026-04-17 22:23 40.07903 -75.84463 31252 ft 482 kts 53°
2026-04-17 22:23 40.09751 -75.80812 31577 ft 481 kts 53°
2026-04-17 22:24 40.11598 -75.77184 31894 ft 480 kts 53°
2026-04-17 22:24 40.13427 -75.73549 32204 ft 480 kts 53°
2026-04-17 22:24 40.15248 -75.69914 32496 ft 479 kts 53°
2026-04-17 22:24 40.17067 -75.66277 32803 ft 478 kts 54°
2026-04-17 22:25 40.18878 -75.62651 33086 ft 477 kts 54°
2026-04-17 22:25 40.20691 -75.59026 33371 ft 477 kts 54°
2026-04-17 22:25 40.22548 -75.55446 33627 ft 475 kts 51°
2026-04-17 22:25 40.24571 -75.52056 33911 ft 473 kts 47°
2026-04-17 22:26 40.26689 -75.48785 34147 ft 472 kts 46°
2026-04-17 22:26 40.28822 -75.45536 34380 ft 472 kts 46°
2026-04-17 22:26 40.30938 -75.42262 34600 ft 472 kts 47°
2026-04-17 22:26 40.33043 -75.38975 34816 ft 472 kts 47°
2026-04-17 22:27 40.35146 -75.35679 34966 ft 473 kts 47°
2026-04-17 22:27 40.39410 -75.29077 34987 ft 479 kts 47°
2026-04-17 22:28 40.43689 -75.22337 34983 ft 483 kts 47°
2026-04-17 22:28 40.47961 -75.15568 34980 ft 482 kts 47°
2026-04-17 22:29 40.52223 -75.08802 34978 ft 482 kts 47°
2026-04-17 22:29 40.56490 -75.02020 34979 ft 482 kts 47°
2026-04-17 22:30 40.60645 -74.95452 34979 ft 482 kts 47°
2026-04-17 22:30 40.64918 -74.88668 34976 ft 483 kts 47°
2026-04-17 22:31 40.69184 -74.81876 34969 ft 482 kts 47°
2026-04-17 22:31 40.73447 -74.75074 34965 ft 483 kts 47°
2026-04-17 22:32 40.77714 -74.68250 34968 ft 483 kts 47°
2026-04-17 22:32 40.82016 -74.61457 34973 ft 484 kts 47°
2026-04-17 22:33 40.86307 -74.54616 34978 ft 484 kts 47°
2026-04-17 22:33 40.90582 -74.47765 34980 ft 484 kts 47°
2026-04-17 22:34 40.94867 -74.40905 34980 ft 485 kts 47°
2026-04-17 22:34 40.99153 -74.34038 34976 ft 485 kts 47°
2026-04-17 22:35 41.03423 -74.27123 34977 ft 486 kts 47°
2026-04-17 22:35 41.07696 -74.20182 34972 ft 487 kts 47°
2026-04-17 22:36 41.11970 -74.13231 34967 ft 488 kts 47°
2026-04-17 22:36 41.16305 -74.06341 34968 ft 487 kts 44°
2026-04-17 22:37 41.20913 -73.99771 34971 ft 488 kts 44°
2026-04-17 22:37 41.25484 -73.93074 34973 ft 492 kts 44°
2026-04-17 22:38 41.30050 -73.86333 34976 ft 491 kts 45°
2026-04-17 22:38 41.34619 -73.79577 34977 ft 492 kts 45°
2026-04-17 22:39 41.39121 -73.72725 34981 ft 493 kts 45°
2026-04-17 22:39 41.45871 -73.62417 34986 ft 493 kts 45°
2026-04-17 22:40 41.50385 -73.55572 34984 ft 493 kts 45°
2026-04-17 22:40 41.54875 -73.48670 34983 ft 493 kts 46°
2026-04-17 22:41 41.59354 -73.41759 34991 ft 494 kts 46°
2026-04-17 22:41 41.63898 -73.34904 34996 ft 492 kts 42°
2026-04-17 22:42 41.69056 -73.29027 35003 ft 486 kts 31°
2026-04-17 22:42 41.74766 -73.24278 35001 ft 484 kts 27°
2026-04-17 22:43 41.80492 -73.19529 35000 ft 485 kts 28°
2026-04-17 22:43 41.86191 -73.14738 34996 ft 485 kts 28°
2026-04-17 22:44 41.91887 -73.09902 34996 ft 486 kts 30°
2026-04-17 22:44 41.97100 -73.04066 34999 ft 493 kts 42°
2026-04-17 22:45 42.01508 -72.96990 34995 ft 496 kts 50°
2026-04-17 22:45 42.05710 -72.89650 34992 ft 496 kts 49°
2026-04-17 22:46 42.09947 -72.82356 34991 ft 496 kts 49°
2026-04-17 22:46 42.14195 -72.75052 34990 ft 496 kts 49°
2026-04-17 22:47 42.18475 -72.67777 34990 ft 496 kts 47°
2026-04-17 22:47 42.22919 -72.60695 34983 ft 496 kts 47°
2026-04-17 22:48 42.27342 -72.53573 34976 ft 496 kts 47°
2026-04-17 22:48 42.31746 -72.46430 34977 ft 497 kts 47°
2026-04-17 22:49 42.36164 -72.39237 34987 ft 498 kts 47°
2026-04-17 22:49 42.40597 -72.32070 34997 ft 497 kts 47°
2026-04-17 22:50 42.45032 -72.24905 35006 ft 498 kts 47°
2026-04-17 22:50 42.49445 -72.17717 35011 ft 497 kts 47°
2026-04-17 22:51 42.53846 -72.10516 35013 ft 497 kts 47°
2026-04-17 22:51 42.58242 -72.03303 35019 ft 496 kts 47°
2026-04-17 22:52 42.62629 -71.96085 35027 ft 498 kts 47°
2026-04-17 22:52 42.67027 -71.88830 35032 ft 498 kts 48°
2026-04-17 22:53 42.71417 -71.81571 35036 ft 498 kts 48°
2026-04-17 22:53 42.75797 -71.74309 35037 ft 498 kts 48°
2026-04-17 22:54 42.80178 -71.67030 35035 ft 497 kts 48°
2026-04-17 22:54 42.84547 -71.59749 35033 ft 498 kts 48°
2026-04-17 22:55 42.88937 -71.52482 35028 ft 498 kts 48°
2026-04-17 22:55 42.93303 -71.45175 35017 ft 497 kts 49°
2026-04-17 22:56 42.97647 -71.37857 35011 ft 498 kts 49°
2026-04-17 22:56 43.01991 -71.30521 35015 ft 498 kts 49°
2026-04-17 22:57 43.06338 -71.23177 35017 ft 498 kts 49°
2026-04-17 22:57 43.10680 -71.15821 35018 ft 498 kts 49°
2026-04-17 22:58 43.15022 -71.08449 35020 ft 498 kts 49°
2026-04-17 22:58 43.19397 -71.01105 35021 ft 499 kts 49°
2026-04-17 22:59 43.23741 -70.93688 35021 ft 501 kts 49°
2026-04-17 22:59 43.28083 -70.86241 35021 ft 501 kts 49°
2026-04-17 23:00 43.32423 -70.78787 35027 ft 502 kts 49°
2026-04-17 23:00 43.36784 -70.71320 35036 ft 502 kts 49°
2026-04-17 23:01 43.41087 -70.63754 35039 ft 504 kts 54°
2026-04-17 23:01 43.44591 -70.55411 35038 ft 506 kts 65°
2026-04-17 23:02 43.47225 -70.46434 35036 ft 507 kts 68°
2026-04-17 23:02 43.49855 -70.37421 35032 ft 508 kts 68°
2026-04-17 23:03 43.52527 -70.28418 35031 ft 509 kts 68°
2026-04-17 23:03 43.55212 -70.19396 35032 ft 510 kts 68°
2026-04-17 23:04 43.57944 -70.10395 35032 ft 511 kts 68°
2026-04-17 23:04 43.60659 -70.01354 35033 ft 511 kts 68°
2026-04-17 23:05 43.63390 -69.92314 35096 ft 513 kts 68°
2026-04-17 23:05 43.64732 -69.87770 35290 ft 512 kts 68°
2026-04-17 23:05 43.66065 -69.83234 35485 ft 511 kts 68°
2026-04-17 23:06 43.67395 -69.78694 35638 ft 511 kts 68°
2026-04-17 23:06 43.68724 -69.74151 35803 ft 510 kts 68°
2026-04-17 23:06 43.69614 -69.71107 35907 ft 510 kts 68°
2026-04-17 23:06 43.70939 -69.66572 36064 ft 510 kts 68°
2026-04-17 23:07 43.72265 -69.62038 36215 ft 510 kts 68°
2026-04-17 23:07 43.73578 -69.57497 36366 ft 509 kts 69°
2026-04-17 23:07 43.74842 -69.52929 36512 ft 509 kts 69°
2026-04-17 23:07 43.76095 -69.48368 36656 ft 509 kts 69°
2026-04-17 23:08 43.77349 -69.43799 36797 ft 509 kts 69°
2026-04-17 23:08 43.78600 -69.39231 36941 ft 508 kts 69°
2026-04-17 23:08 43.81100 -69.30092 37017 ft 509 kts 69°
2026-04-17 23:09 43.83594 -69.20942 37024 ft 509 kts 69°
2026-04-17 23:09 43.86113 -69.11798 37023 ft 510 kts 69°
2026-04-17 23:10 43.88664 -69.02642 37020 ft 510 kts 69°
2026-04-17 23:10 43.91179 -68.93473 37021 ft 510 kts 69°
2026-04-17 23:11 43.93680 -68.84274 37035 ft 511 kts 69°
2026-04-17 23:11 43.96175 -68.75052 37042 ft 512 kts 69°
2026-04-17 23:12 43.98667 -68.65797 37043 ft 513 kts 70°
2026-04-17 23:12 44.01150 -68.56542 37044 ft 513 kts 69°
2026-04-17 23:13 44.03627 -68.47271 37044 ft 513 kts 70°
2026-04-17 23:13 44.05691 -68.39521 37045 ft 514 kts 70°
2026-04-17 23:14 44.08160 -68.30213 37046 ft 515 kts 70°
2026-04-17 23:14 44.10626 -68.20879 37047 ft 515 kts 70°
2026-04-17 23:15 44.13084 -68.11540 37047 ft 515 kts 70°
2026-04-17 23:15 44.15535 -68.02193 37047 ft 515 kts 70°
2026-04-17 23:16 44.17977 -67.92839 37047 ft 515 kts 70°
2026-04-17 23:16 44.20413 -67.83473 37046 ft 515 kts 70°
2026-04-17 23:17 44.22840 -67.74107 37044 ft 515 kts 70°
2026-04-17 23:17 44.25260 -67.64727 37042 ft 515 kts 70°
2026-04-17 23:18 44.27674 -67.55336 37041 ft 516 kts 70°
2026-04-17 23:18 44.30037 -67.46103 37039 ft 516 kts 70°
2026-04-17 23:19 44.31950 -67.38722 37038 ft 516 kts 70°
2026-04-17 23:19 44.34357 -67.29305 37036 ft 517 kts 70°
2026-04-17 23:20 44.36734 -67.19849 37036 ft 517 kts 71°
2026-04-17 23:20 44.39106 -67.10375 37036 ft 518 kts 71°
2026-04-17 23:21 44.42115 -67.01312 37032 ft 515 kts 54°
2026-04-17 23:21 44.46952 -66.94072 37036 ft 508 kts 36°
2026-04-17 23:22 44.52649 -66.88275 37038 ft 507 kts 31°
2026-04-17 23:22 44.58369 -66.82539 37038 ft 507 kts 32°
2026-04-17 23:23 44.64046 -66.76695 37039 ft 508 kts 32°
2026-04-17 23:23 44.69711 -66.70800 37040 ft 507 kts 32°
2026-04-17 23:24 44.75394 -66.64942 37041 ft 508 kts 32°
2026-04-17 23:24 44.81065 -66.59034 37042 ft 508 kts 32°
2026-04-17 23:25 44.86731 -66.53096 37043 ft 509 kts 32°
2026-04-17 23:25 44.92398 -66.47134 37040 ft 509 kts 32°
2026-04-17 23:26 44.98063 -66.41156 37041 ft 510 kts 32°
2026-04-17 23:26 45.03728 -66.35161 37042 ft 510 kts 32°
2026-04-17 23:27 45.09397 -66.29145 37043 ft 510 kts 32°
2026-04-17 23:27 45.15071 -66.23108 37045 ft 511 kts 32°
2026-04-17 23:28 45.20746 -66.17056 37047 ft 512 kts 32°
2026-04-17 23:28 45.26418 -66.10991 37048 ft 513 kts 32°
2026-04-17 23:29 45.32104 -66.04894 37049 ft 513 kts 32°
2026-04-17 23:29 45.37792 -65.98781 37049 ft 514 kts 32°
2026-04-17 23:30 45.43489 -65.92641 37049 ft 515 kts 32°
2026-04-17 23:30 45.49188 -65.86483 37048 ft 515 kts 32°
2026-04-17 23:31 45.54889 -65.80308 37047 ft 516 kts 32°
2026-04-17 23:31 45.60587 -65.74120 37046 ft 516 kts 32°
2026-04-17 23:32 45.66285 -65.67915 37045 ft 516 kts 32°
2026-04-17 23:32 45.71978 -65.61699 37045 ft 516 kts 32°
2026-04-17 23:33 45.77666 -65.55473 37044 ft 516 kts 32°
2026-04-17 23:33 45.83357 -65.49227 37045 ft 515 kts 32°
2026-04-17 23:34 45.89030 -65.42984 37047 ft 515 kts 32°
2026-04-17 23:34 45.94704 -65.36723 37052 ft 515 kts 32°
2026-04-17 23:35 46.00373 -65.30449 37052 ft 515 kts 32°
2026-04-17 23:35 46.06044 -65.24158 37052 ft 515 kts 32°
2026-04-17 23:36 46.11703 -65.17866 37052 ft 515 kts 32°
2026-04-17 23:36 46.17356 -65.11562 37053 ft 514 kts 32°
2026-04-17 23:37 46.22999 -65.05253 37053 ft 514 kts 32°
2026-04-17 23:37 46.28641 -64.98927 37053 ft 514 kts 32°
2026-04-17 23:38 46.34272 -64.92597 37052 ft 514 kts 32°
2026-04-17 23:38 46.39905 -64.86248 37053 ft 514 kts 32°
2026-04-17 23:39 46.45538 -64.79879 37054 ft 514 kts 32°
2026-04-17 23:39 46.51156 -64.73514 37055 ft 513 kts 32°
2026-04-17 23:40 46.56775 -64.67130 37056 ft 514 kts 32°
2026-04-17 23:40 46.62391 -64.60732 37062 ft 513 kts 32°
2026-04-17 23:41 46.67996 -64.54328 37066 ft 513 kts 32°
2026-04-17 23:41 46.73597 -64.47911 37068 ft 513 kts 32°
2026-04-17 23:42 46.79198 -64.41477 37069 ft 514 kts 32°
2026-04-17 23:42 46.84799 -64.35026 37071 ft 513 kts 32°
2026-04-17 23:43 46.90383 -64.28577 37072 ft 513 kts 32°
2026-04-17 23:43 46.95970 -64.22106 37074 ft 513 kts 32°
2026-04-17 23:44 47.01557 -64.15618 37075 ft 513 kts 32°
2026-04-17 23:44 47.07132 -64.09125 37076 ft 512 kts 32°
2026-04-17 23:45 47.15490 -63.99359 37075 ft 513 kts 32°
2026-04-17 23:46 47.21064 -63.92822 37076 ft 514 kts 32°
2026-04-17 23:46 47.26639 -63.86267 37077 ft 514 kts 32°
2026-04-17 23:47 47.32212 -63.79696 37077 ft 514 kts 32°
2026-04-17 23:47 47.37783 -63.73109 37078 ft 514 kts 32°
2026-04-17 23:48 47.43349 -63.66510 37078 ft 514 kts 32°
2026-04-17 23:48 47.48910 -63.59897 37084 ft 514 kts 32°
2026-04-17 23:49 47.54470 -63.53267 37084 ft 514 kts 32°
2026-04-17 23:49 47.60028 -63.46622 37084 ft 515 kts 32°
2026-04-17 23:50 47.65579 -63.39966 37085 ft 515 kts 32°
2026-04-17 23:50 47.71134 -63.33286 37086 ft 515 kts 32°
2026-04-17 23:51 47.76682 -63.26596 37087 ft 515 kts 32°
2026-04-17 23:51 47.81667 -63.20567 37082 ft 515 kts 32°
2026-04-17 23:52 47.86448 -63.14773 37079 ft 515 kts 32°
2026-04-17 23:52 47.91994 -63.08032 37083 ft 515 kts 32°
2026-04-17 23:53 47.97530 -63.01284 37084 ft 515 kts 32°
2026-04-17 23:53 48.03064 -62.94519 37084 ft 515 kts 32°
2026-04-17 23:54 48.08588 -62.87748 37084 ft 515 kts 32°
2026-04-17 23:54 48.14125 -62.80941 37083 ft 516 kts 32°
2026-04-17 23:55 48.19650 -62.74129 37084 ft 515 kts 32°
2026-04-17 23:55 48.25173 -62.67300 37084 ft 516 kts 32°
2026-04-17 23:56 48.30690 -62.60459 37084 ft 516 kts 32°
2026-04-17 23:56 48.36216 -62.53586 37084 ft 517 kts 33°
2026-04-17 23:57 48.41737 -62.46699 37084 ft 516 kts 32°
2026-04-17 23:57 48.47250 -62.39802 37084 ft 516 kts 33°
2026-04-17 23:58 48.52759 -62.32890 37084 ft 517 kts 32°
2026-04-17 23:58 48.58269 -62.25958 37089 ft 517 kts 33°
2026-04-17 23:59 48.63778 -62.19005 37091 ft 517 kts 33°
2026-04-17 23:59 48.69280 -62.12041 37091 ft 516 kts 33°
2026-04-18 00:00 48.74773 -62.05068 37092 ft 517 kts 33°
2026-04-18 00:00 48.80273 -61.98066 37093 ft 517 kts 33°
2026-04-18 00:01 48.85776 -61.91038 37095 ft 519 kts 33°
2026-04-18 00:01 48.91278 -61.83991 37096 ft 518 kts 33°
2026-04-18 00:02 48.96764 -61.76943 37087 ft 517 kts 33°
2026-04-18 00:02 49.02255 -61.69869 37073 ft 518 kts 33°
2026-04-18 00:03 49.07742 -61.62777 37070 ft 518 kts 33°
2026-04-18 00:03 49.13230 -61.55664 37070 ft 518 kts 33°
2026-04-18 00:04 49.18707 -61.48543 37071 ft 518 kts 33°
2026-04-18 00:04 49.24176 -61.41411 37071 ft 518 kts 33°
2026-04-18 00:05 49.29651 -61.34250 37074 ft 518 kts 33°
2026-04-18 00:05 49.35113 -61.27083 37084 ft 519 kts 33°
2026-04-18 00:06 49.40583 -61.19886 37086 ft 519 kts 33°
2026-04-18 00:06 49.46042 -61.12680 37086 ft 519 kts 33°
2026-04-18 00:07 49.51504 -61.05447 37087 ft 519 kts 33°
2026-04-18 00:07 49.56961 -60.98201 37087 ft 519 kts 33°
2026-04-18 00:08 49.62416 -60.90933 37085 ft 520 kts 33°
2026-04-18 00:08 49.67878 -60.83635 37079 ft 520 kts 33°
2026-04-18 00:09 49.73335 -60.76321 37079 ft 521 kts 33°
2026-04-18 00:09 49.78789 -60.68988 37078 ft 521 kts 33°
2026-04-18 00:10 49.84238 -60.61638 37078 ft 520 kts 33°
2026-04-18 00:10 49.89674 -60.54284 37077 ft 520 kts 33°
2026-04-18 00:11 49.95102 -60.46915 37087 ft 518 kts 33°
2026-04-18 00:11 50.00468 -60.39609 37119 ft 509 kts 32°
2026-04-18 00:12 50.05735 -60.32416 37127 ft 500 kts 32°
2026-04-18 00:12 50.10908 -60.25333 37126 ft 495 kts 31°
2026-04-18 00:13 50.16075 -60.18237 37123 ft 497 kts 31°
2026-04-18 00:13 50.21247 -60.11111 37126 ft 497 kts 31°
2026-04-18 00:14 50.26417 -60.03972 37120 ft 497 kts 31°
2026-04-18 00:14 50.31594 -59.96795 37123 ft 500 kts 32°
2026-04-18 00:15 50.36786 -59.89574 37119 ft 500 kts 32°
2026-04-18 00:15 50.41973 -59.82338 37116 ft 501 kts 32°
2026-04-18 00:16 50.47154 -59.75090 37113 ft 500 kts 32°
2026-04-18 00:16 50.52340 -59.67813 37113 ft 501 kts 32°
2026-04-18 00:17 50.57529 -59.60508 37110 ft 501 kts 32°
2026-04-18 00:17 50.62704 -59.53200 37111 ft 501 kts 32°
2026-04-18 00:18 50.67881 -59.45870 37107 ft 499 kts 33°
2026-04-18 00:18 50.73017 -59.38573 37106 ft 498 kts 33°
2026-04-18 00:19 50.78155 -59.31251 37105 ft 498 kts 33°
2026-04-18 00:19 50.83284 -59.23919 37103 ft 499 kts 33°
2026-04-18 00:20 50.88419 -59.16556 37102 ft 499 kts 33°
2026-04-18 00:20 50.93546 -59.09182 37101 ft 499 kts 33°
2026-04-18 00:21 50.98675 -59.01781 37099 ft 499 kts 33°
2026-04-18 00:21 51.03798 -58.94368 37098 ft 499 kts 33°
2026-04-18 00:22 51.08922 -58.86927 37097 ft 500 kts 34°
2026-04-18 00:22 51.14037 -58.79478 37096 ft 500 kts 34°
2026-04-18 00:23 51.19141 -58.72021 37095 ft 498 kts 34°
2026-04-18 00:23 51.24235 -58.64555 37094 ft 499 kts 34°
2026-04-18 00:24 51.29330 -58.57065 37093 ft 499 kts 34°
2026-04-18 00:24 51.34426 -58.49547 37092 ft 499 kts 34°
2026-04-18 00:25 51.39508 -58.42029 37091 ft 498 kts 34°
2026-04-18 00:25 51.44581 -58.34500 37088 ft 498 kts 34°
2026-04-18 00:26 51.49649 -58.26953 37094 ft 498 kts 34°
2026-04-18 00:26 51.54719 -58.19379 37095 ft 499 kts 35°
2026-04-18 00:27 51.59782 -58.11792 37094 ft 497 kts 35°
2026-04-18 00:27 51.64827 -58.04209 37093 ft 498 kts 35°
2026-04-18 00:28 51.69875 -57.96596 37092 ft 498 kts 35°
2026-04-18 00:28 51.74911 -57.88976 37087 ft 498 kts 35°
2026-04-18 00:29 51.79954 -57.81322 37085 ft 498 kts 35°
2026-04-18 00:29 51.84979 -57.73669 37084 ft 498 kts 35°
2026-04-18 00:30 51.90016 -57.65975 37084 ft 498 kts 35°
2026-04-18 00:30 51.95040 -57.58276 37084 ft 499 kts 35°
2026-04-18 00:31 52.00070 -57.50541 37083 ft 499 kts 36°
2026-04-18 00:31 52.05088 -57.42801 37083 ft 498 kts 36°
2026-04-18 00:32 52.10104 -57.35038 37079 ft 499 kts 36°
2026-04-18 00:32 52.15116 -57.27255 37077 ft 500 kts 36°
2026-04-18 00:33 52.20135 -57.19438 37076 ft 500 kts 36°
2026-04-18 00:33 52.25150 -57.11599 37072 ft 501 kts 37°
2026-04-18 00:34 52.30172 -57.03724 37072 ft 501 kts 37°
2026-04-18 00:34 52.35187 -56.95834 37075 ft 502 kts 37°
2026-04-18 00:35 52.40207 -56.87909 37075 ft 503 kts 37°
2026-04-18 00:35 52.45224 -56.79963 37074 ft 503 kts 37°
2026-04-18 00:36 52.50242 -56.71992 37074 ft 504 kts 37°
2026-04-18 00:36 52.55283 -56.64049 37073 ft 503 kts 37°
2026-04-18 00:37 52.60283 -56.56031 37074 ft 504 kts 38°
2026-04-18 00:37 52.65290 -56.47954 37074 ft 505 kts 38°
2026-04-18 00:38 52.70293 -56.39868 37074 ft 504 kts 38°
2026-04-18 00:38 52.75203 -56.31605 37075 ft 508 kts 42°
2026-04-18 00:39 52.79749 -56.22632 37076 ft 511 kts 45°
2026-04-18 00:39 52.84249 -56.13582 37077 ft 510 kts 44°
2026-04-18 00:40 52.88761 -56.04562 37077 ft 510 kts 44°
2026-04-18 00:40 52.93280 -55.95531 37077 ft 510 kts 44°
2026-04-18 00:41 52.97843 -55.86523 37079 ft 512 kts 44°
2026-04-18 00:41 53.02432 -55.77514 37080 ft 512 kts 44°
2026-04-18 00:42 53.06997 -55.68448 37081 ft 512 kts 45°
2026-04-18 00:42 53.11546 -55.59350 37083 ft 513 kts 45°
2026-04-18 00:43 53.16085 -55.50226 37083 ft 513 kts 45°
2026-04-18 00:43 53.20619 -55.41075 37084 ft 513 kts 45°
2026-04-18 00:44 53.25147 -55.31902 37085 ft 514 kts 45°
2026-04-18 00:44 53.29678 -55.22688 37086 ft 514 kts 45°
2026-04-18 00:45 53.34191 -55.13477 37086 ft 514 kts 46°
2026-04-18 00:45 53.38709 -55.04220 37086 ft 514 kts 46°
2026-04-18 00:46 53.43220 -54.94944 37086 ft 515 kts 46°
2026-04-18 00:46 53.47051 -54.87036 37086 ft 515 kts 46°
2026-04-18 00:47 53.51555 -54.77711 37085 ft 515 kts 46°
2026-04-18 00:47 53.56055 -54.68358 37085 ft 516 kts 46°
2026-04-18 00:48 53.60549 -54.58982 37084 ft 516 kts 46°
2026-04-18 00:48 53.65040 -54.49577 37085 ft 517 kts 47°
2026-04-18 00:49 53.71764 -54.35430 37083 ft 517 kts 47°
2026-04-18 00:49 53.76238 -54.25971 37061 ft 517 kts 47°
2026-04-18 00:50 53.80707 -54.16488 37050 ft 517 kts 47°
2026-04-18 00:50 53.85170 -54.06981 37046 ft 517 kts 47°
2026-04-18 00:51 53.89623 -53.97459 37045 ft 517 kts 47°
2026-04-18 00:51 53.94073 -53.87908 37044 ft 517 kts 47°
2026-04-18 00:52 53.98513 -53.78340 37043 ft 517 kts 47°
2026-04-18 00:52 54.02949 -53.68745 37042 ft 517 kts 48°
2026-04-18 00:53 54.07375 -53.59134 37041 ft 517 kts 48°
2026-04-18 00:53 54.11791 -53.49508 37040 ft 517 kts 48°
2026-04-18 00:54 54.16200 -53.39860 37039 ft 517 kts 48°
2026-04-18 00:54 54.20608 -53.30176 37038 ft 518 kts 48°
2026-04-18 00:55 54.25007 -53.20475 37037 ft 517 kts 49°
2026-04-18 00:55 54.29395 -53.10760 37036 ft 517 kts 49°
2026-04-18 00:56 54.33783 -53.01006 37035 ft 518 kts 49°
2026-04-18 00:56 54.38168 -52.91221 37034 ft 519 kts 49°
2026-04-18 00:57 54.41085 -52.84691 37033 ft 519 kts 49°
2026-04-18 00:58 54.51491 -52.61252 37048 ft 519 kts 50°
2026-04-18 00:58 54.55850 -52.51367 37057 ft 520 kts 50°
2026-04-18 00:59 54.60204 -52.41455 37044 ft 520 kts 50°
2026-04-18 00:59 54.64554 -52.31513 37027 ft 520 kts 50°
2026-04-18 01:00 54.68897 -52.21546 37019 ft 520 kts 50°
2026-04-18 01:00 54.73232 -52.11557 37014 ft 520 kts 50°
2026-04-18 01:01 54.77558 -52.01548 37011 ft 520 kts 50°
2026-04-18 01:01 54.81882 -51.91505 37009 ft 521 kts 50°
2026-04-18 01:02 54.86199 -51.81436 37005 ft 521 kts 50°
2026-04-18 01:02 54.90513 -51.71334 37001 ft 521 kts 51°
2026-04-18 01:03 54.94814 -51.61220 36978 ft 522 kts 51°
2026-04-18 01:03 54.99111 -51.51073 36935 ft 522 kts 51°
2026-04-18 01:04 55.03401 -51.40904 36912 ft 522 kts 51°
2026-04-18 01:04 55.07684 -51.30706 36899 ft 522 kts 51°
2026-04-18 01:05 55.11959 -51.20487 36891 ft 522 kts 51°
2026-04-18 01:05 55.16224 -51.10249 36883 ft 523 kts 51°
2026-04-18 01:06 55.20485 -50.99977 36877 ft 523 kts 51°
2026-04-18 01:06 55.24732 -50.89697 36871 ft 522 kts 51°
2026-04-18 01:07 55.28971 -50.79394 36865 ft 522 kts 52°
2026-04-18 01:07 55.33198 -50.69076 36859 ft 522 kts 52°
2026-04-18 01:08 55.37424 -50.58718 36853 ft 522 kts 52°
2026-04-18 01:08 55.41634 -50.48355 36846 ft 522 kts 52°
2026-04-18 01:09 55.45844 -50.37948 36841 ft 522 kts 52°
2026-04-18 01:09 55.50039 -50.27538 36835 ft 522 kts 52°
2026-04-18 01:10 55.54222 -50.17108 36829 ft 522 kts 52°
2026-04-18 01:10 55.58392 -50.06670 36823 ft 521 kts 52°
2026-04-18 01:11 55.62553 -49.96207 36822 ft 521 kts 53°
2026-04-18 01:11 55.66709 -49.85713 36816 ft 521 kts 53°
2026-04-18 01:12 55.70856 -49.75198 36810 ft 521 kts 53°
2026-04-18 01:12 55.74996 -49.64655 36804 ft 522 kts 53°
2026-04-18 01:13 55.79127 -49.54091 36798 ft 523 kts 53°
2026-04-18 01:13 55.83281 -49.43519 36792 ft 522 kts 52°
2026-04-18 01:14 55.87422 -49.32911 36785 ft 524 kts 53°
2026-04-18 01:14 55.91528 -49.22208 36779 ft 524 kts 54°
2026-04-18 01:15 55.95624 -49.11480 36774 ft 525 kts 54°
2026-04-18 01:15 55.99730 -49.00716 36767 ft 525 kts 54°
2026-04-18 01:16 56.04092 -48.90322 36762 ft 522 kts 49°
2026-04-18 01:16 56.08595 -48.80178 36755 ft 522 kts 50°
2026-04-18 01:17 56.13057 -48.69934 36750 ft 522 kts 50°
2026-04-18 01:17 56.17500 -48.59637 36744 ft 524 kts 50°
2026-04-18 01:18 56.21937 -48.49311 36738 ft 523 kts 50°
2026-04-18 01:18 56.26448 -48.39069 36733 ft 524 kts 50°
2026-04-18 01:19 56.30923 -48.28731 36727 ft 524 kts 50°
2026-04-18 01:19 56.35377 -48.18339 36721 ft 525 kts 51°
2026-04-18 01:20 56.39813 -48.07920 36716 ft 525 kts 51°
2026-04-18 01:20 56.44238 -47.97475 36710 ft 525 kts 51°
2026-04-18 01:21 56.48657 -47.86994 36705 ft 525 kts 51°
2026-04-18 01:21 56.53072 -47.76477 36701 ft 525 kts 51°
2026-04-18 01:22 56.57471 -47.65951 36695 ft 525 kts 51°
2026-04-18 01:22 56.61866 -47.55391 36690 ft 525 kts 51°
2026-04-18 01:23 56.66250 -47.44807 36685 ft 525 kts 51°
2026-04-18 01:23 56.70618 -47.34218 36680 ft 524 kts 52°
2026-04-18 01:24 56.74978 -47.23601 36676 ft 524 kts 52°
2026-04-18 01:24 56.79327 -47.12965 36671 ft 525 kts 52°
2026-04-18 01:25 56.83670 -47.02297 36666 ft 524 kts 52°
2026-04-18 01:25 56.88004 -46.91602 36662 ft 524 kts 52°
2026-04-18 01:26 56.92328 -46.80885 36658 ft 525 kts 52°
2026-04-18 01:26 56.96644 -46.70140 36653 ft 525 kts 52°
2026-04-18 01:27 57.00951 -46.59372 36650 ft 525 kts 52°
2026-04-18 01:27 57.05248 -46.48577 36645 ft 525 kts 53°
2026-04-18 01:28 57.09535 -46.37761 36642 ft 525 kts 53°
2026-04-18 01:28 57.13815 -46.26914 36637 ft 525 kts 53°
2026-04-18 01:29 57.18080 -46.16056 36633 ft 524 kts 53°
2026-04-18 01:29 57.22335 -46.05176 36630 ft 524 kts 53°
2026-04-18 01:30 57.26578 -45.94277 36626 ft 524 kts 53°
2026-04-18 01:30 57.30822 -45.83325 36623 ft 525 kts 53°
2026-04-18 01:31 57.35051 -45.72360 36619 ft 524 kts 54°
2026-04-18 01:31 57.39265 -45.61386 36617 ft 524 kts 54°
2026-04-18 01:32 57.43476 -45.50372 36613 ft 525 kts 54°
2026-04-18 01:32 57.47682 -45.39317 36609 ft 525 kts 54°
2026-04-18 01:33 57.51875 -45.28245 36592 ft 525 kts 54°
2026-04-18 01:33 57.56062 -45.17140 36584 ft 525 kts 54°
2026-04-18 01:34 57.60246 -45.05989 36580 ft 526 kts 54°
2026-04-18 01:34 57.64420 -44.94815 36576 ft 526 kts 54°
2026-04-18 01:35 57.68582 -44.83621 36574 ft 526 kts 54°
2026-04-18 01:35 57.72738 -44.72389 36572 ft 526 kts 54°
2026-04-18 01:36 57.76883 -44.61134 36569 ft 526 kts 55°
2026-04-18 01:36 57.81016 -44.49862 36566 ft 526 kts 55°
2026-04-18 01:37 57.85144 -44.38547 36565 ft 526 kts 55°
2026-04-18 01:37 57.89260 -44.27212 36562 ft 526 kts 55°
2026-04-18 01:38 57.93360 -44.15867 36560 ft 525 kts 55°
2026-04-18 01:38 57.97448 -44.04501 36558 ft 525 kts 55°
2026-04-18 01:39 58.01529 -43.93102 36555 ft 525 kts 56°
2026-04-18 01:39 58.05596 -43.81686 36554 ft 525 kts 56°
2026-04-18 01:40 58.09654 -43.70242 36553 ft 525 kts 56°
2026-04-18 01:40 58.13704 -43.58764 36550 ft 525 kts 56°
2026-04-18 01:41 58.17741 -43.47269 36545 ft 525 kts 56°
2026-04-18 01:41 58.21772 -43.35735 36544 ft 525 kts 56°
2026-04-18 01:42 58.25789 -43.24186 36542 ft 525 kts 56°
2026-04-18 01:42 58.29797 -43.12604 36541 ft 525 kts 57°
2026-04-18 01:43 58.33794 -43.01001 36540 ft 525 kts 57°
2026-04-18 01:43 58.37782 -42.89364 36539 ft 526 kts 57°
2026-04-18 01:44 58.41764 -42.77688 36537 ft 526 kts 57°
2026-04-18 01:44 58.45732 -42.65997 36536 ft 526 kts 57°
2026-04-18 01:45 58.49696 -42.54259 36535 ft 527 kts 57°
2026-04-18 01:45 58.53651 -42.42489 36534 ft 527 kts 57°
2026-04-18 01:46 58.57593 -42.30698 36533 ft 527 kts 57°
2026-04-18 01:46 58.61526 -42.18877 36532 ft 527 kts 57°
2026-04-18 01:47 58.65449 -42.07025 36531 ft 527 kts 57°
2026-04-18 01:47 58.69362 -41.95148 36530 ft 528 kts 58°
2026-04-18 01:48 58.73263 -41.83244 36529 ft 527 kts 58°
2026-04-18 01:48 58.77155 -41.71305 36529 ft 527 kts 58°
2026-04-18 01:49 58.81031 -41.59358 36528 ft 526 kts 58°
2026-04-18 01:49 58.84935 -41.47434 36528 ft 526 kts 57°
2026-04-18 01:50 58.88799 -41.35462 36527 ft 526 kts 58°
2026-04-18 01:50 58.92621 -41.23404 36527 ft 526 kts 59°
2026-04-18 01:51 58.96431 -41.11330 36526 ft 526 kts 59°
2026-04-18 01:51 59.00237 -40.99275 36525 ft 526 kts 58°
2026-04-18 01:52 59.04415 -40.87669 36525 ft 526 kts 54°
2026-04-18 01:52 59.08662 -40.76147 36524 ft 526 kts 54°
2026-04-18 01:53 59.12871 -40.64543 36524 ft 526 kts 54°
2026-04-18 01:54 59.19131 -40.47082 36510 ft 525 kts 55°
2026-04-18 01:54 59.23374 -40.35519 36502 ft 525 kts 54°
2026-04-18 01:55 59.27596 -40.23930 36501 ft 524 kts 54°
2026-04-18 01:55 59.31774 -40.12287 36500 ft 523 kts 55°
2026-04-18 01:56 59.35927 -40.00613 36500 ft 523 kts 55°
2026-04-18 01:56 59.40063 -39.88914 36500 ft 523 kts 55°
2026-04-18 01:57 59.44181 -39.77197 36500 ft 522 kts 55°
2026-04-18 01:57 59.48290 -39.65448 36499 ft 522 kts 56°
2026-04-18 01:58 59.52384 -39.53678 36499 ft 522 kts 56°
2026-04-18 01:58 59.56468 -39.41885 36498 ft 523 kts 56°
2026-04-18 01:59 59.60550 -39.30032 36497 ft 523 kts 56°
2026-04-18 01:59 59.64617 -39.18164 36497 ft 523 kts 56°
2026-04-18 02:00 59.68677 -39.06255 36497 ft 524 kts 56°
2026-04-18 02:00 59.72723 -38.94329 36496 ft 522 kts 56°
2026-04-18 02:01 59.76754 -38.82384 36496 ft 522 kts 56°
2026-04-18 02:01 59.80774 -38.70412 36496 ft 522 kts 56°
2026-04-18 02:02 59.84784 -38.58408 36495 ft 521 kts 57°
2026-04-18 02:02 59.88775 -38.46401 36494 ft 521 kts 57°
2026-04-18 02:03 59.92746 -38.34392 36494 ft 520 kts 57°
2026-04-18 02:03 59.96708 -38.22348 36493 ft 520 kts 57°
2026-04-18 02:04 60.00652 -38.10296 36493 ft 519 kts 57°
2026-04-18 02:04 60.04586 -37.98213 36492 ft 519 kts 57°
2026-04-18 02:05 60.08505 -37.86112 36492 ft 519 kts 57°
2026-04-18 02:05 60.12417 -37.73969 36491 ft 519 kts 57°
2026-04-18 02:06 60.16319 -37.61797 36490 ft 519 kts 58°
2026-04-18 02:06 60.20198 -37.49632 36490 ft 518 kts 58°
2026-04-18 02:07 60.24065 -37.37438 36489 ft 518 kts 58°
2026-04-18 02:07 60.27927 -37.25198 36489 ft 519 kts 58°
2026-04-18 02:08 60.31778 -37.12928 36488 ft 519 kts 58°
2026-04-18 02:08 60.35617 -37.00631 36519 ft 518 kts 58°
2026-04-18 02:09 60.39443 -36.88312 36550 ft 518 kts 59°
2026-04-18 02:09 60.43256 -36.75965 36564 ft 519 kts 59°
2026-04-18 02:10 60.47063 -36.63577 36568 ft 519 kts 59°
2026-04-18 02:10 60.50858 -36.51158 36567 ft 519 kts 59°
2026-04-18 02:11 60.54647 -36.38692 36576 ft 520 kts 59°
2026-04-18 02:11 60.58423 -36.26202 36586 ft 520 kts 59°
2026-04-18 02:12 60.62185 -36.13687 36587 ft 520 kts 59°
2026-04-18 02:12 60.65940 -36.01132 36587 ft 520 kts 59°
2026-04-18 02:13 60.69678 -35.88561 36587 ft 519 kts 59°
2026-04-18 02:13 60.73408 -35.75952 36587 ft 519 kts 60°
2026-04-18 02:14 60.77121 -35.63328 36587 ft 518 kts 60°
2026-04-18 02:14 60.80818 -35.50691 36587 ft 519 kts 60°
2026-04-18 02:15 60.84502 -35.38028 36587 ft 519 kts 60°
2026-04-18 02:15 60.88179 -35.25319 36587 ft 519 kts 60°
2026-04-18 02:16 60.91841 -35.12591 36587 ft 519 kts 60°
2026-04-18 02:16 60.95489 -34.99839 36587 ft 518 kts 60°
2026-04-18 02:17 60.99123 -34.87068 36588 ft 518 kts 61°
2026-04-18 02:17 61.02740 -34.74282 36588 ft 518 kts 61°
2026-04-18 02:18 61.06349 -34.61454 36589 ft 518 kts 61°
2026-04-18 02:18 61.09943 -34.48606 36589 ft 518 kts 61°
2026-04-18 02:19 61.13522 -34.35740 36589 ft 517 kts 61°
2026-04-18 02:19 61.17088 -34.22848 36590 ft 517 kts 62°
2026-04-18 02:20 61.20639 -34.09934 36591 ft 517 kts 62°
2026-04-18 02:20 61.24177 -33.96995 36592 ft 516 kts 62°
2026-04-18 02:21 61.27693 -33.84063 36593 ft 516 kts 62°
2026-04-18 02:21 61.31203 -33.71079 36594 ft 516 kts 62°
2026-04-18 02:22 61.34698 -33.58075 36595 ft 516 kts 62°
2026-04-18 02:22 61.38177 -33.45053 36595 ft 515 kts 62°
2026-04-18 02:23 61.41645 -33.31998 36597 ft 515 kts 62°
2026-04-18 02:23 61.45099 -33.18922 36586 ft 514 kts 63°
2026-04-18 02:24 61.48524 -33.05877 36581 ft 513 kts 63°
2026-04-18 02:24 61.51955 -32.92735 36596 ft 516 kts 63°
2026-04-18 02:25 61.55373 -32.79564 36602 ft 515 kts 63°
2026-04-18 02:25 61.58779 -32.66362 36983 ft 513 kts 63°
2026-04-18 02:25 61.60465 -32.59795 37223 ft 512 kts 63°
2026-04-18 02:26 61.62151 -32.53210 37389 ft 512 kts 63°
2026-04-18 02:26 61.63828 -32.46643 37640 ft 510 kts 63°
2026-04-18 02:26 61.65498 -32.40082 37806 ft 510 kts 63°
2026-04-18 02:26 61.67169 -32.33499 37979 ft 510 kts 63°
2026-04-18 02:27 61.68827 -32.26946 38220 ft 508 kts 64°
2026-04-18 02:27 61.70485 -32.20375 38358 ft 508 kts 64°
2026-04-18 02:27 61.72134 -32.13819 38539 ft 507 kts 64°
2026-04-18 02:28 61.75428 -32.00670 38604 ft 508 kts 64°
2026-04-18 02:28 61.78705 -31.87507 38614 ft 507 kts 64°
2026-04-18 02:29 61.81964 -31.74335 38618 ft 507 kts 64°
2026-04-18 02:29 61.85212 -31.61137 38621 ft 508 kts 64°
2026-04-18 02:30 61.88526 -31.47955 38623 ft 508 kts 64°
2026-04-18 02:30 61.91737 -31.34657 38605 ft 508 kts 64°
2026-04-18 02:31 61.94927 -31.21308 38599 ft 508 kts 65°
2026-04-18 02:31 61.98112 -31.07934 38601 ft 508 kts 64°
2026-04-18 02:32 62.00801 -30.94152 38605 ft 505 kts 75°
2026-04-18 02:32 62.02639 -30.79819 38610 ft 501 kts 78°
2026-04-18 02:33 62.04389 -30.65505 38614 ft 500 kts 78°
2026-04-18 02:33 62.06138 -30.51170 38618 ft 501 kts 78°
2026-04-18 02:34 62.07875 -30.36807 38622 ft 501 kts 78°
2026-04-18 02:34 62.09660 -30.22448 38625 ft 502 kts 76°
2026-04-18 02:35 62.11541 -30.08126 38629 ft 502 kts 77°
2026-04-18 02:35 62.13344 -29.93744 38633 ft 502 kts 77°
2026-04-18 02:36 62.15103 -29.79353 38637 ft 502 kts 78°
2026-04-18 02:36 62.16838 -29.64936 38641 ft 501 kts 78°
2026-04-18 02:37 62.18550 -29.50530 38645 ft 500 kts 78°
2026-04-18 02:37 62.20244 -29.36116 38649 ft 500 kts 78°
2026-04-18 02:38 62.21919 -29.21723 38653 ft 498 kts 78°
2026-04-18 02:38 62.23573 -29.07358 38657 ft 497 kts 78°
2026-04-18 02:39 62.25211 -28.92992 38661 ft 497 kts 78°
2026-04-18 02:39 62.26833 -28.78611 38665 ft 496 kts 78°
2026-04-18 02:40 62.28440 -28.64228 38670 ft 497 kts 78°
2026-04-18 02:40 62.30030 -28.49835 38674 ft 496 kts 78°
2026-04-18 02:41 62.31607 -28.35416 38677 ft 496 kts 78°
2026-04-18 02:41 62.33169 -28.20986 38682 ft 497 kts 79°
2026-04-18 02:42 62.34718 -28.06525 38686 ft 497 kts 79°